This demonstration page uses our WeatherBlox Daily Observations layout. Learn more.

Left ArrowRight Arrow

Hourly Observations for February 2, 2016

Temp ( °F °C ) Dew Point ( °F °C ) Humidity (%) Winds ( mph kmh ) Pressure ( in mb ) Visibility ( mi km ) Precip ( " mm )
12:15 am 00:15 Windy with Snow Likely 32 undefined 31 -0.6 96 96 NE 29 46 29.83 1010 2 2 N/A
12:35 am 00:35 Windy with Snow Likely 32 undefined 31 -0.7 95 95 NE 28 44 29.77 1008 2 2 N/A
12:55 am 00:55 Windy with Snow Likely 32 undefined 31 -0.7 95 95 NE 30 48 29.77 1008 3 5 N/A
1:15 am 01:15 Windy with Snow Likely 32 undefined 31 -0.7 95 95 NE 29 46 29.74 1007 3 4 0.01 0.25
1:35 am 01:35 Windy with Snow Likely 32 -0.1 31 -0.8 95 95 NE 30 48 29.71 1006 2 3 0.02 0.51
1:55 am 01:55 Cloudy with Snow 32 -0.2 30 -1 94 94 NE 30 48 29.68 1005 1 1 0.02 0.51
2:15 am 02:15 Windy with Snow Likely 31 -0.3 30 -1 95 95 NE 32 52 29.68 1005 1 2 N/A
2:35 am 02:35 Cloudy with Snow 31 -0.5 30 -1.1 96 96 NE 33 54 29.65 1004 1 1 N/A
2:55 am 02:55 Windy with Snow Likely 31 -0.5 30 -1.1 96 96 NE 31 50 29.65 1004 1 2 N/A
3:15 am 03:15 Cloudy with Snow 31 -0.5 30 -1.1 96 96 NE 35 56 29.62 1003 1 2 N/A
3:35 am 03:35 Cloudy with Snow 31 -0.5 30 -1.2 95 95 NE 36 57 29.59 1002 1 1 N/A
3:55 am 03:55 Cloudy with Snow 31 -0.5 30 -1.2 95 95 NE 37 59 29.59 1002 1 1 N/A
4:15 am 04:15 Cloudy with Snow 31 -0.5 30 -1.1 96 96 NE 36 57 29.59 1002 1 1 N/A
4:35 am 04:35 Cloudy with Snow 31 -0.5 30 -1.2 95 95 NE 35 56 29.56 1001 1 1 N/A
4:55 am 04:55 Cloudy with Heavy Snow 31 -0.5 30 -1.2 95 95 NE 36 57 29.56 1001 1 1 0.01 0.25
5:15 am 05:15 Cloudy with Heavy Snow 31 -0.6 30 -1.3 95 95 NE 36 57 29.56 1001 1 1 N/A
5:35 am 05:35 Cloudy with Heavy Snow 31 -0.7 29 -1.5 94 94 NE 33 54 29.56 1001 1 1 0.01 0.25
5:55 am 05:55 Cloudy with Heavy Snow 30 -0.9 29 -1.6 95 95 NNE 32 52 29.56 1001 1 1 0.01 0.25
6:15 am 06:15 Cloudy 30 -1.1 29 -1.8 95 95 NNE 32 52 29.56 1001 N/A N/A
6:35 am 06:35 Windy with Snow Likely 30 -1.1 29 -1.8 95 95 NNE 36 57 29.56 1001 N/A 0.01 0.25
6:55 am 06:55 Cloudy with Mist and Fog 30 -1.2 28 -2 94 94 NNE 35 56 29.56 1001 4 6 0.01 0.25
7:15 am 07:15 Cloudy with Mist and Fog 30 -1.2 28 -2 94 94 NNE 39 63 29.56 1001 4 6 0.01 0.25
7:35 am 07:35 Cloudy with Mist and Fog 29 -1.4 28 -2.1 95 95 N 37 59 29.56 1001 5 8 0.01 0.25
7:55 am 07:55 Cloudy with Mist and Fog 29 -1.6 28 -2.3 95 95 N 38 61 29.56 1001 4 6 0.01 0.25
8:15 am 08:15 Cloudy with Mist and Fog 29 -1.8 27 -2.6 94 94 N 38 61 29.56 1001 3 4 N/A
8:35 am 08:35 Cloudy with Mist and Fog 28 -2 27 -2.7 95 95 N 44 70 29.56 1001 2 3 N/A
8:55 am 08:55 Cloudy with Light Wintry Mix 28 -2 27 -2.7 95 95 N 45 72 29.56 1001 2 2 N/A
9:15 am 09:15 Cloudy with Light Wintry Mix 28 -2.1 27 -2.9 94 94 N 39 63 29.56 1001 2 2 N/A
9:35 am 09:35 Windy with Snow Likely 28 -2.5 26 -3.5 93 93 N 35 56 29.56 1001 2 2 N/A
9:55 am 09:55 Very Windy with Snow Likely 27 -2.7 26 -3.6 94 94 N 40 65 29.59 1002 2 3 N/A
10:15 am 10:15 Cloudy 27 -2.9 25 -3.9 93 93 N 39 63 29.59 1002 N/A N/A
10:35 am 10:35 Cloudy 27 -3 25 -4 93 93 N 36 57 29.62 1003 N/A N/A
10:55 am 10:55 Cloudy 27 -2.8 25 -3.9 92 92 N 37 59 29.62 1003 N/A N/A
11:15 am 11:15 Cloudy 27 -2.6 25 -3.7 92 92 N 38 61 29.62 1003 N/A N/A
11:35 am 11:35 Cloudy 27 -2.6 25 -3.8 92 92 N 35 56 29.62 1003 N/A N/A
11:55 am 11:55 Cloudy 27 -2.6 25 -3.8 92 92 N 30 48 29.62 1003 N/A N/A
12:15 pm 12:15 Cloudy 27 -2.6 25 -3.8 92 92 N 31 50 29.62 1003 N/A N/A
12:35 pm 12:35 Cloudy 27 -2.8 25 -4.1 91 91 N 33 54 29.62 1003 N/A N/A
12:55 pm 12:55 undefined 27 -3 25 -4.1 92 92 N 38 61 29.62 1003 N/A N/A
1:15 pm 13:15 undefined 27 -2.9 24 -4.2 91 91 N 35 56 29.62 1003 N/A N/A
1:35 pm 13:35 Cloudy 27 -2.7 25 -4 91 91 N 36 57 29.62 1003 N/A N/A
1:55 pm 13:55 Cloudy 27 -2.7 25 -4 91 91 N 33 54 29.62 1003 N/A N/A
2:15 pm 14:15 undefined 27 -2.8 24 -4.2 90 90 N 26 43 29.62 1003 N/A N/A
2:35 pm 14:35 undefined 27 -2.9 25 -4.1 92 92 N 29 46 29.65 1004 N/A N/A
2:55 pm 14:55 undefined 27 -2.7 25 -4 91 91 N 28 44 29.65 1004 N/A N/A
3:15 pm 15:15 undefined 27 -3 24 -4.5 90 90 N 29 46 29.65 1004 N/A N/A
3:35 pm 15:35 Cloudy 27 -3 24 -4.5 90 90 N 32 52 29.68 1005 N/A N/A
3:55 pm 15:55 undefined 27 -3 24 -4.4 90 90 N 28 44 29.68 1005 N/A N/A
4:15 pm 16:15 Cloudy 26 -3.1 24 -4.5 90 90 N 29 46 29.71 1006 N/A N/A
4:35 pm 16:35 Cloudy 26 -3.1 24 -4.2 92 92 N 30 48 29.74 1007 N/A N/A
4:55 pm 16:55 Cloudy 26 -3.1 24 -4.2 92 92 N 29 46 29.74 1007 N/A N/A
5:15 pm 17:15 Cloudy 26 -3.1 24 -4.2 92 92 N 29 46 29.77 1008 N/A N/A
5:35 pm 17:35 Cloudy 26 -3.3 24 -4.5 92 92 N 29 46 29.77 1008 N/A N/A
5:55 pm 17:55 Cloudy 26 -3.3 24 -4.5 92 92 N 29 46 29.80 1009 N/A N/A
6:15 pm 18:15 Cloudy 26 -3.5 24 -4.5 93 93 N 30 48 29.85 1011 N/A N/A
6:35 pm 18:35 Cloudy 26 -3.5 24 -4.5 93 93 N 28 44 29.85 1011 N/A N/A
6:55 pm 18:55 Cloudy 26 -3.5 24 -4.5 93 93 N 35 56 29.88 1012 N/A N/A
7:15 pm 19:15 undefined 26 -3.5 24 -4.7 92 92 NNW 31 50 29.88 1012 N/A N/A
7:35 pm 19:35 Cloudy 26 -3.6 23 -5 90 90 NNW 25 41 29.91 1013 N/A N/A
7:55 pm 19:55 Cloudy 26 -3.5 23 -5.1 89 89 NNW 29 46 29.91 1013 N/A N/A
8:15 pm 20:15 Cloudy 25 -3.7 22 -5.5 87 87 NNW 29 46 29.91 1013 N/A N/A
8:35 pm 20:35 Cloudy 25 -3.7 22 -5.5 87 87 NNW 30 48 29.91 1013 N/A N/A
8:55 pm 20:55 Cloudy 25 -3.7 22 -5.6 87 87 NNW 28 44 29.91 1013 N/A N/A
9:15 pm 21:15 Mostly Cloudy 25 -4 21 -6 86 86 NNW 24 39 29.91 1013 N/A N/A
9:35 pm 21:35 undefined 24 -4.2 21 -6.1 87 87 NNW 23 37 29.94 1014 N/A N/A
9:55 pm 21:55 Mostly Cloudy 24 -4.2 21 -6.2 86 86 NNW 21 33 29.94 1014 N/A N/A
10:15 pm 22:15 Cloudy 25 -4.1 21 -6.2 86 86 NNW 25 41 29.97 1015 N/A N/A
10:35 pm 22:35 Cloudy 25 -4 21 -6.2 85 85 NNW 22 35 29.97 1015 N/A N/A
10:55 pm 22:55 Cloudy 25 -4 21 -6.3 84 84 NNW 16 26 30.00 1016 N/A N/A
11:15 pm 23:15 Cloudy 25 -4 21 -6.1 86 86 NNW 20 31 30.00 1016 N/A N/A
11:35 pm 23:35 Cloudy 24 -4.3 20 -6.7 84 84 NNW 24 39 30.03 1017 N/A N/A
11:55 pm 23:55 Partly Cloudy 23 -5.1 18 -7.8 82 82 NNW 21 33 30.06 1018 N/A N/A

Powered by AerisWeather